Dillon, MT

7:19 PM MDT on August 23, 2017 (GMT -0600)
Dillon

Weather History for KDLN - January, 2014

Change the Weather History Date:

Tuesday, January 28, 2014

  Actual Average Record
Temperature  
Mean Temperature 19 °F 24 °F  
Max Temperature 37 °F 33 °F 50 °F (1976)
Min Temperature 1 °F 14 °F -30 °F (1980)
Degree Days  
Heating Degree Days 46    
Month to date heating degree days 980  
Since 1 July heating degree days 4310  
Cooling Degree Days 0    
Month to date cooling degree days 0  
Year to date cooling degree days 0  
Moisture  
Dew Point 4 °F    
Average Humidity 53    
Maximum Humidity 79    
Minimum Humidity 26    
Precipitation  
Precipitation 0.00 in 0.01 in 0.11 in (1942)
Month to date precipitation 0.02 0.25  
Year to date precipitation 0.02 0.25  
Snow  
Snow 0.00 in - - ()
Snow Depth T in    
Sea Level Pressure  
Sea Level Pressure 30.33 in    
Wind  
Wind Speed 8 mph (SW)    
Max Wind Speed 24 mph    
Max Gust Speed 32 mph    
Visibility 10 miles    
Events      
T = Trace of Precipitation, MM = Missing Value Source: NWS Daily Summary

Daily Weather History Graph

Daily Weather History Graph

Search for Another Location

Airport or City:

Trip Planner

Search our weather history database for the weather conditions in past years. The results will help you decide how hot, cold, wet, or windy it might be!

Date:

Astronomy

Jan. 28, 2014 Rise Set
Actual Time 7:54 AM MST 5:31 PM MST
Civil Twilight 7:23 AM MST 6:03 PM MST
Nautical Twilight 6:47 AM MST 6:39 PM MST
Astronomical Twilight 6:12 AM MST 7:14 PM MST
Moon 5:42 AM MST (1/28) 3:24 PM MST (1/28)
Length of Visible Light 10h 40m
Length of Day
9h 36m
Waning Crescent, 7% of the Moon is Illuminated
Jan 28
Waning Crescent
Jan 30
New
Feb 6
First Quarter
Feb 14
Full
Feb 22
Last Quarter

Hourly Weather History & Observations

Time (MST) Temp. Windchill Dew Point Humidity Pressure Visibility Wind Dir Wind Speed Gust Speed Precip Events Conditions
12:53 AM 3.9 °F -8.2 °F -2.0 °F 76% 30.47 in 10.0 mi WNW 6.9 mph - N/A   Clear
1:53 AM 6.1 °F -4.3 °F -0.9 °F 73% 30.45 in 10.0 mi West 5.8 mph - N/A   Clear
2:53 AM 6.1 °F -5.6 °F -2.0 °F 69% 30.43 in 10.0 mi SSE 6.9 mph - N/A   Clear
3:53 AM 7.0 °F -9.1 °F -2.0 °F 67% 30.42 in 10.0 mi SSW 12.7 mph - N/A   Clear
4:53 AM 8.1 °F -2.0 °F -2.9 °F 61% 30.40 in 10.0 mi SSW 5.8 mph - N/A   Clear
5:53 AM 6.1 °F -2.8 °F -2.9 °F 67% 30.42 in 10.0 mi SSW 4.6 mph - N/A   Clear
6:53 AM 6.1 °F -5.6 °F -2.9 °F 67% 30.48 in 10.0 mi South 6.9 mph - N/A   Clear
7:53 AM 7.0 °F -3.3 °F -2.9 °F 64% 30.46 in 10.0 mi Variable 5.8 mph - N/A   Clear
8:53 AM 9.0 °F - -0.9 °F 64% 30.45 in 10.0 mi Calm Calm - N/A   Clear
9:53 AM 16.0 °F - 1.9 °F 54% 30.43 in 10.0 mi Calm Calm - N/A   Clear
10:53 AM 18.0 °F 12.7 °F 1.9 °F 50% 30.41 in 10.0 mi NNW 3.5 mph - N/A   Clear
11:53 AM 21.0 °F - 1.0 °F 42% 30.36 in 10.0 mi Calm Calm - N/A   Clear
12:53 PM 27.0 °F - 3.0 °F 36% 30.31 in 10.0 mi Calm Calm - N/A   Clear
1:53 PM 30.0 °F 26.5 °F 3.0 °F 32% 30.27 in 10.0 mi North 3.5 mph - N/A   Clear
2:53 PM 30.0 °F - 3.0 °F 32% 30.24 in 10.0 mi Calm Calm - N/A   Clear
3:53 PM 28.9 °F - 3.0 °F 33% 30.24 in 10.0 mi Calm Calm - N/A   Clear
4:53 PM 35.1 °F 26.9 °F 3.0 °F 26% 30.20 in 10.0 mi WSW 11.5 mph - N/A   Clear
5:53 PM 36.0 °F 25.6 °F 3.9 °F 26% 30.21 in 10.0 mi SW 18.4 mph - N/A   Overcast
6:53 PM 34.0 °F 23.0 °F 19.9 °F 56% 30.24 in 10.0 mi SW 18.4 mph 27.6 mph N/A   Overcast
7:53 PM 33.1 °F 21.2 °F 16.0 °F 50% 30.23 in 10.0 mi SSW 20.7 mph - N/A   Overcast
8:53 PM 30.9 °F 19.8 °F 10.0 °F 42% 30.24 in 10.0 mi SSW 16.1 mph - N/A   Overcast
9:53 PM 33.1 °F 23.0 °F 14.0 °F 46% 30.19 in 10.0 mi SSW 15.0 mph - N/A   Overcast
10:53 PM 28.9 °F 18.6 °F 14.0 °F 54% 30.15 in 10.0 mi SSW 12.7 mph - N/A   Clear
11:53 PM 30.9 °F 19.4 °F 14.0 °F 50% 30.11 in 10.0 mi SSW 17.3 mph - N/A   Mostly Cloudy